TimeCDT,TemperatureF,Dew PointF,Humidity,Sea Level PressureIn,VisibilityMPH,Wind Direction,Wind SpeedMPH,Gust SpeedMPH,PrecipitationIn,Events,Conditions,WindDirDegrees,DateUTC
12:56 AM,59.9,59.9,100,30.25,7.0,NE,4.6,-,N/A,,Clear,40,2013-09-17 05:56:00
1:56 AM,61.0,59.9,96,30.25,8.0,NE,3.5,-,N/A,,Partly Cloudy,40,2013-09-17 06:56:00
2:56 AM,61.0,59.9,96,30.24,7.0,NE,5.8,-,N/A,,Clear,50,2013-09-17 07:56:00
3:56 AM,59.9,59.0,97,30.24,7.0,ENE,4.6,-,N/A,,Clear,60,2013-09-17 08:56:00
4:56 AM,57.9,56.8,96,30.24,5.0,NE,4.6,-,N/A,,Clear,40,2013-09-17 09:56:00
5:35 AM,57.2,57.2,100,30.24,2.5,Calm,Calm,-,N/A,,Partly Cloudy,0,2013-09-17 10:35:00
5:42 AM,57.2,55.4,94,30.25,3.0,Calm,Calm,-,N/A,,Clear,0,2013-09-17 10:42:00
5:56 AM,55.9,54.9,96,30.25,2.5,Calm,Calm,-,N/A,,Partly Cloudy,0,2013-09-17 10:56:00
6:15 AM,55.4,55.4,100,30.25,3.0,Calm,Calm,-,N/A,,Partly Cloudy,0,2013-09-17 11:15:00
6:29 AM,55.4,55.4,100,30.25,1.8,Calm,Calm,-,N/A,,Mostly Cloudy,0,2013-09-17 11:29:00
6:48 AM,57.2,57.2,100,30.26,2.0,Calm,Calm,-,N/A,,Mostly Cloudy,0,2013-09-17 11:48:00
6:56 AM,56.8,56.8,100,30.27,2.0,Calm,Calm,-,N/A,,Mostly Cloudy,0,2013-09-17 11:56:00
7:20 AM,59.0,57.2,94,30.26,4.0,Calm,Calm,-,N/A,,Mostly Cloudy,0,2013-09-17 12:20:00
7:56 AM,61.0,59.9,96,30.27,4.0,NE,4.6,-,N/A,,Overcast,40,2013-09-17 12:56:00
8:56 AM,63.0,59.9,90,30.27,9.0,NNE,8.1,-,N/A,,Mostly Cloudy,30,2013-09-17 13:56:00
9:13 AM,64.4,60.8,88,30.27,10.0,ENE,4.6,-,N/A,,Scattered Clouds,60,2013-09-17 14:13:00
9:56 AM,68.0,61.0,78,30.28,10.0,Calm,Calm,-,N/A,,Partly Cloudy,0,2013-09-17 14:56:00
10:56 AM,72.0,61.0,68,30.27,10.0,Calm,Calm,-,N/A,,Clear,0,2013-09-17 15:56:00
11:56 AM,75.9,59.9,57,30.25,10.0,East,5.8,-,N/A,,Clear,90,2013-09-17 16:56:00
12:56 PM,77.9,59.9,54,30.22,10.0,SSE,6.9,-,N/A,,Partly Cloudy,150,2013-09-17 17:56:00
1:56 PM,77.9,61.0,56,30.20,10.0,Calm,Calm,-,N/A,,Clear,0,2013-09-17 18:56:00
2:56 PM,79.0,61.9,56,30.18,10.0,Variable,4.6,-,N/A,,Scattered Clouds,0,2013-09-17 19:56:00
3:56 PM,77.9,63.0,60,30.17,10.0,ENE,5.8,-,N/A,,Clear,70,2013-09-17 20:56:00
4:56 PM,77.9,63.0,60,30.17,10.0,NE,4.6,-,N/A,,Clear,40,2013-09-17 21:56:00
5:56 PM,77.0,63.9,64,30.17,10.0,East,6.9,-,N/A,,Clear,80,2013-09-17 22:56:00
6:56 PM,68.9,64.9,87,30.17,10.0,Calm,Calm,-,N/A,,Scattered Clouds,0,2013-09-17 23:56:00
7:56 PM,65.8,63.9,93,30.17,10.0,Calm,Calm,-,N/A,,Scattered Clouds,0,2013-09-18 00:56:00
8:56 PM,63.9,63.0,97,30.18,8.0,Calm,Calm,-,N/A,,Partly Cloudy,0,2013-09-18 01:56:00
9:56 PM,61.9,61.9,100,30.18,6.0,Calm,Calm,-,N/A,,Partly Cloudy,0,2013-09-18 02:56:00
10:56 PM,61.9,61.0,97,30.18,5.0,Calm,Calm,-,N/A,,Partly Cloudy,0,2013-09-18 03:56:00
11:56 PM,63.0,63.0,100,30.17,7.0,Calm,Calm,-,N/A,,Partly Cloudy,0,2013-09-18 04:56:00